PreDB.eu

music predb - trance, techno, house, hardstyle, hardcore
updated: 2021-07-24 04:08:22
JAN 38 GB 816 RFEB 37 GB 918 RMAR 38 GB 1002 RAPR 45 GB 807 RMAY 46 GB 764 R
2021-07-24 02:05:28TranceKyau_And_Albert-Spuren-(EUPH348)-SINGLE-WEB-2021-AOV
2021-07-24 02:00:08TranceProtoculture-Lost_In_Isolation_(Extended_Mixes)-(ARDI4332)-WEB-2021-AOV
2021-07-23 21:12:54Trance59Somna_And_Tekia-Sky_Scar-(IMO135)-SINGLE-WEB-2021-AOV
2021-07-23 21:10:06Trance10299Fun-Tastic-Inside_Your_Soul-(BCD2016278)-WEBFLAC-2021-L4L
2021-07-23 21:10:00Trance13354Carat_Trax-The_Message_(Remastered)-(BCD2021478)-WEBFLAC-2021-L4L
2021-07-23 21:09:52Trance11285Asphyx-Collection_EP-(BCD2021479)-WEBFLAC-2021-L4L
2021-07-23 21:08:35Trance513Reorder_And_Jordan_Tobias_Present_Crowdandctrl-Hush-(ASOT664)-SINGLE-WEB-2021-AOV
2021-07-23 18:16:54Trance512Armin_Van_Buuren_And_Jorn_Van_Deynhoven-Lost_In_Space-(ASOT670)-SINGLE-WEB-2021-AOV
2021-07-23 18:10:14Trance17141Dreamzone7-Strength_To_Survive-(8590233055646)-WEB-2021-KNOWN
2021-07-23 14:23:25Trance417Sean_Tyas_and_Shelby_Merry-Someday_(Story_Of_Oz_Remix)-(DIT025)-SINGLE-WEB-2021-wAx
2021-07-23 12:44:37Trance415BiXX-Breakthrough_(Extended_Mix)-(ZT012)-SINGLE-WEB-2021-wAx
2021-07-23 12:29:40Trance523Blue_Serigala-Challenger-(INFRAR043)-WEB-2021-wAx
2021-07-23 12:23:38Trance5244_Strings_and_Elara-Never-(CRR023)-WEB-2021-wAx
2021-07-23 11:54:06Trance532SMR_LVE_and_Polly_Strange-Rising_Sun-(CLHR456)-WEB-2021-wAx
2021-07-23 10:56:50Trance416ReMech_ft_Marianna_Ray-Follow_You_(Extended_Mix)-(DEF238)-SINGLE-WEB-2021-wAx
2021-07-23 06:15:44Trance14127VA_-_Beatport_Chart_By_Epidemika_-_July_2021_Top_Ten-WEB-2021
2021-07-23 06:15:28Trance13144VA_-_Beatport_Eugenio_Tokarev_Time_Chart-WEB-2021
2021-07-23 06:15:08Trance14158VA_-_Beatport_David_Forbes_Equator_Chart-WEB-2021
2021-07-23 06:14:30Trance15185VA_-_Beatport_Dj_Josh_Chart_6-WEB-2021
2021-07-22 23:06:02Trance513Andrew_Rayel_Ft._AIDYL-River-(FYH011)-SINGLE-WEB-2021-AOV
2021-07-22 22:57:57TranceMarkus_Schulz_-_Global_DJ_Broadcast-SAT-07-22-2021-TALiON
2021-07-22 21:59:41TranceArmin_van_Buuren_-_A_State_of_Trance_1026-SAT-07-22-2021-TALiON
2021-07-22 18:09:47Trance515Ben_Van_Gosh_-_Predator-(DIG_160478)-SINGLE-WEB-2021-iDC
2021-07-22 14:44:43TranceVA-Klubbheads_Present_Hits-(DIGI_078-2)-3CD-FLAC-2003-c05
2021-07-22 14:37:17TranceVA-Klubbheads_Present_Hits-(DIGI_078-2)-3CD-2003-COS_INT
2021-07-22 13:35:18Trance517Tulamor-Night_Rider-(IC229D)-REPACK-WEB-2021-wAx
2021-07-22 12:19:42Trance414Blue_Serigala-Lift_Off_(Extended_Mix)-(MNEOS026)-SINGLE-WEB-2021-wAx
2021-07-22 12:09:27Trance415Roman_Messer_and_Richard_Bedford-Breathe_(Extended_Mix)-(SND269)-SINGLE-WEB-2021-wAx
2021-07-22 11:50:36Trance514Tulamor-Night_Rider-(IC229D)-WEB-2021-wAx
2021-07-22 11:36:47Trance422SoundLift-Reverse_Thrust-(NATR027)-SINGLE-WEB-2021-wAx
2021-07-22 11:30:39Trance416STEEM_SL-Existence_(Extended_Mix)-(SCR424)-SINGLE-WEB-2021-wAx
2021-07-22 11:25:47Trance415Sean_Truby-When_You_Put_It_Like_That_(Extended_Mix)-(FSOE538)-SINGLE-WEB-2021-wAx
2021-07-22 10:51:21Trance412Tasadi_and_Numa-Brighter_Than_Ever_(Extended_Mix)-(AVA372)-SINGLE-WEB-2021-wAx
2021-07-22 10:44:36Trance420Michael_Dow-Phoenix-(TA048)-SINGLE-WEB-2021-wAx
2021-07-22 10:36:43Trance414Key_Lean-Inspiring_Asturias_(Extended_Mix)-(ITP160E)-SINGLE-WEB-2021-wAx
2021-07-22 10:26:44Trance521Dave_Steward-The_Believers-(NC0182)-WEB-2021-wAx
2021-07-22 10:04:26Trance415Pete_Delete-El_Panico_(Extended_Mix)-(BN010)-SINGLE-WEB-2021-wAx
2021-07-22 09:59:03Trance414R3dub-Sinopia-(UA139)-SINGLE-WEB-2021-wAx
2021-07-22 06:17:08Trance887Trancemaster_-_Neptunes_Orb-(TAR003)-WEB-2017
2021-07-22 06:16:52Trance18151VA_-_Beatport_Chart_By_Dr._Base_-_Dance_To_This_For_June-WEB-2021
2021-07-22 06:16:12Trance9174Dmitriy_Kuznetsov_-_Emerald_Dream-(ABSK088)-WEB-FLAC-2021
2021-07-22 06:15:52Trance14174VA_-_Beatport_Yelow_Crystal_Clear_Chart-WEB-2021
2021-07-22 06:15:33Trance14155VA_-_Beatport_Chart_By_Toregualto_-_The_Dark_Side_Of_The_Devils_Sound-WEB-2021
2021-07-22 06:15:16Trance14135VA_-_Beatport_Zengi_Zengi_Charts_202106-WEB-2021
2021-07-22 06:14:59Trance13171VA_-_Beatport_Nicholson_Now_We_Are_Free_Chart-WEB-2021
2021-07-22 02:41:27Psychedelic867Alien_Chaos_and_Yuxibu-One_Year_After_Party-(SMNRC020)-WEB-2021-VRG
2021-07-21 11:15:36Trance644Harry_Square-Mountainside-(ASR319)-WEB-2021-wAx
2021-07-21 11:08:53Trance417KINETICA-Space_Flower_(Extended_Mix)-(KR020)-SINGLE-WEB-2021-wAx
2021-07-21 06:20:27Trance676Amin_Salmee_and_Frailai_and_Maratone_-_Nothing_Without_You_(Tensteps_Remix)-(MEMA002)-WEB-FLAC-2021
2021-07-21 06:20:09Trance16181VA_-_Beatport_Ryui_Bossen_In_Trance_Harmony_Episode_088-WEB-2021
2021-07-21 06:19:49Trance15171VA_-_Beatport_Pure_Trance_Sessions_506-WEB-2021
2021-07-21 06:19:31Trance13139VA_-_Beatport_Chart_By_Darren_Anthony_-_Emotions_Into_Melodies_Episode_007-WEB-2021
2021-07-21 06:19:14Trance13141VA_-_Beatport_Ron_With_Leeds_Funky_Beats_Charts-WEB-2021
2021-07-21 06:18:56Trance14150VA_-_Beatport_Manuel_Le_Saux_July_Chart-WEB-2021
2021-07-21 06:18:33Trance14154VA_-_Beatport_Dj_Xboy_Trance_Mission_Radioshow_209_Chart-WEB-2021
2021-07-21 04:14:20Trance529Bora_and_Shori-Journey-(FIGURA212)-WEB-2021-PTC
2021-07-21 03:55:39Trance12_Inch_Thumpers-Play_The_Game-(THM005)-WEB-2000-KNOWN
2021-07-20 15:08:29Trance623Kyle_Armstrong_and_Rigalla_-_Digital_Diversion-(JDR045)-WEB-2021-ZzZz
2021-07-20 14:01:07Trance624Ilya_Fly_-_Decisive_Action-(NM265)-WEB-2021-ZzZz
2021-07-20 11:28:10Trance415Drival-Ether_Rain_(Extended_Mix)-(TRUE173)-SINGLE-WEB-2021-wAx
2021-07-20 11:11:02Trance41940Thavha_and_Liquid_Dream-Computer_In_Love_(Extended_Mix)-(NRG077)-SINGLE-WEB-2021-wAx
2021-07-20 10:09:28Trance15124VA_-_Beatport_Orjan_Nilsen_Summer_Chart-WEB-2021
2021-07-20 06:14:22Trance22259VA_-_Beatport_Chart_By_Auralight_-_Trance_Empyrean_037-WEB-2021
2021-07-20 06:14:02Trance14140VA_-_Beatport_Ayham52_Emotion_In_The_Mix_160-WEB-2021
2021-07-20 06:13:21Trance36522VA_-_Beatport_Stu_Wilson_July_Chart-WEB-2021
2021-07-20 06:13:00Trance15139VA_-_Beatport_Alexander_Popov_Control_Me_Chart-WEB-2021
2021-07-19 23:33:24Trance19231VA-Uplifting_Only_Top_15_July_2021-(UOMC2107)-WEB-2021-COS_INT
2021-07-19 20:46:40TranceCosmic_Gate_-_Wake_Your_Mind_Radio_380-SAT-07-18-2021-TALiON
2021-07-19 16:16:56Trance666Grish-After_The_Storm-(RDS054)-WEBFLAC-2021-L4L
2021-07-19 15:32:55Trance640Infinity_Fate_-_Run_My_Liberty-(ESR537)-WEB-2021-MARiBOR
2021-07-19 10:50:38Trance415Chris_SX-Stay_Right_There_(Extended_Mix)-(NK101)-SINGLE-WEB-2021-wAx
2021-07-19 10:47:58Trance523Calvin_OCommor-Pacific_Melody-(NHW086)-WEB-2021-wAx
2021-07-19 10:36:34Trance412Escea-Away_(Extended_Mix)-(SCR423)-SINGLE-WEB-2021-wAx
2021-07-19 06:17:08Trance17197VA_-_Beatport_Alex_Van_Sanders_Yeiskomp_Miscellany_134-WEB-2021
2021-07-19 06:16:50Trance14142VA_-_Beatport_Steve_Dekay_June_2021_Chart-WEB-2021
2021-07-19 06:16:33Trance13158VA_-_Beatport_Sneijder_Sneijder_June_Chart-WEB-2021
2021-07-19 06:16:15Trance14144VA_-_Beatport_Giuseppe_Ottaviani_Top_Trance_July_Chart-WEB-2021
2021-07-19 06:15:31Trance20238VA_-_Beatport_Paddy_Kelly_KKR_Kelltic_Trance_130-WEB-2021
2021-07-19 06:15:06Trance23284VA_-_Beatport_Paddy_Kelly_KKR_Kelltic_Trance_129-WEB-2021
2021-07-19 06:14:47Trance15167VA_-_Beatport_Dj_Xboy_Trance_Mission_Radioshow_208_Chart-WEB-2021
2021-07-18 21:18:40Trance838Giuseppe_Ottaviani-Lumina_(Fisical_Project_and_Boiling_The_Ocean_Remix)-(GOM045)-WEB-2021-AOV
2021-07-18 20:05:56Trance626Technikal_And_Nicholson-System_Shock_(Dan_Thompson_Remix)-(TIDYTWO217)-WEB-2021-COS_INT
2021-07-18 17:39:55Trance522Chris_Raynor-Alphard-(WATR099)-WEB-2021-wAx
2021-07-18 17:01:25Trance27229Vintage_And_Morelli_And_Arielle_Maren-The_Light-(MCLP023)-WEB-2021-AOV
2021-07-18 16:01:53Trance411Naden-Draugen-(EDM036)-SINGLE-WEB-2021-wAx
2021-07-18 15:31:33Trance29360VA-Nothing_But____Trance_Selections_Vol._05-(NBTS05)-WEB-2021-COS_INT
2021-07-18 15:03:29Trance417Coke_Montilla_-_Sun_Seeker-(NRG069)-SINGLE-WEB-2021-MARiBOR
2021-07-18 13:02:02TrancePaul_van_Dyk_-_VONYC_Sessions_767-SAT-07-18-2021-TALiON
2021-07-18 06:17:40Trance16175VA_-_Beatport_Alex_Van_Sanders_Yeiskomp_Miscellany_133-WEB-2021
2021-07-18 06:17:21Trance14163VA_-_Beatport_Score_June_2021_Chart-WEB-2021
2021-07-18 06:17:03Trance15173VA_-_Beatport_Paddy_Kelly_KKR_Spotlight_Sessions_Fischer_and_Miethig_July-WEB-2021
2021-07-18 06:16:43Trance17199VA_-_Beatport_Projekt_Beats_Episode_049-WEB-2021
2021-07-18 06:16:23Trance17182VA_-_Beatport_Ryui_Bossen_Yeiskomp_Music_Episode_160-WEB-2021
2021-07-18 06:16:02Trance14178VA_-_Beatport_Dj_Xboy_Trance_Mission_Radioshow_210_Chart-WEB-2021
2021-07-18 06:15:27Trance30462VA_-_Beatport_Chart_By_Slc-6_Music_-_Spring-Summer_2021_Chart-WEB-2021
2021-07-18 06:15:03Trance14158VA_-_Beatport_Yang_Someday_Chart-WEB-2021
2021-07-18 03:40:29Trance58Micky_Stardust_-_I_Dont_Need_No_One-(5059863318574)-SINGLE-WEB-2021-ZzZz
2021-07-18 03:36:29Trance631Ash_Kunelius_-_Overdrive_EP-(GERT0617)-WEB-2021-ZzZz
2021-07-18 03:32:58Trance513Pavel_Tkachev_-_Allura-(NS997)-SINGLE-WEB-2021-ZzZz
2021-07-18 03:28:10Trance515Meraj_Uddin_Khan_-_Sound_Entrance_(Redesign_2021)-(TPR121)-SINGLE-WEB-2021-ZzZz
2021-07-18 03:24:22Trance510Septhoz_-_Crashing_Down-(5059863323271)-SINGLE-WEB-2021-ZzZz
2021-07-18 03:21:26Trance59Gelvetta_-_Adelina-(29TRANCE00039)-SINGLE-WEB-2021-ZzZz
2021-07-18 03:18:33Trance630Thomas_Lloyd_-_Perfect_Love_(Incl_Rainer_Ks_99_Remix)-(YR1496)-WEB-2021-ZzZz
2021-07-18 02:49:00Trance522Vyacheslav_Demchenko_-_Waste_Of_Time-(G63)-SINGLE-WEB-2021-ZzZz
2021-07-17 21:12:19Goa11166InnerZone_-_Mind_Altering_Devices-WEB-2021-gEm
2021-07-17 15:22:01Trance29392VA-Black_Hole_Trance_Music_07-21-(BHDC638)-WEB-2021-JUSTiFY_iNT
2021-07-17 15:20:23Trance623Trevor_Reilly_-_This_Is_A_Dream_(Incl._Edit_Mix)-(OUT185)-WEB-2021-JUSTiFY_iNT
2021-07-17 15:19:36Trance622Talla_2XLC_-_Destined_From_The_Start_(Incl._Edit_Mix)-WEB-2021-JUSTiFY_iNT
2021-07-17 13:06:24Trance624Talla_2XLC_and_Junk_Project_-_Pull_2021-(TCP006)-WEB-2021-JUSTiFY_iNT
2021-07-17 13:06:20Trance622Talla_2XLC_and_Andreas_Kraemer_-_Carma-(TCP009)-WEB-2021-JUSTiFY_iNT
2021-07-17 12:20:11Trance19396Kosheen-Resist_(2021_Remaster)-(MOKSHALP05DG)-WEBFLAC-2021-L4L
2021-07-17 06:16:40Trance24323VA_-_Beatport_Mercurial_Virus_June_Chart-WEB-2021
2021-07-17 06:15:51Trance16158VA_-_Beatport_Ryui_Bossen_In_Trance_Harmony_Episode_087-WEB-2021
2021-07-17 06:15:20Trance13146VA_-_Beatport_Marco_V_Vision_20-20_Chart_July-WEB-2021
2021-07-17 06:15:01Trance15158VA_-_Beatport_Ayham52_Trancidelic_Essential_087-WEB-2021
2021-07-17 06:14:43Trance14158VA_-_Beatport_Chart_By_Tempo_Giusto_-_Temet_Nosce_Top10-WEB-2021
2021-07-17 06:14:21Trance14145VA_-_Beatport_Arjans_Farpoint_Chart-WEB-2021
2021-07-16 21:06:38TranceAbove_and_Beyond_-_Group_Therapy_441__Incl_Durante_and_HANA_Guestmix-SAT-07-16-2021-TALiON
2021-07-16 19:18:34Psychedelic414Zyce_And_Flegma-Sun_Bird-SINGLE-WEB-2021-FALCON_INT
2021-07-16 19:18:08Psychedelic17261VA-Purple_Haze-WEB-2021-FALCON_INT
2021-07-16 19:17:12Psychedelic49Unseen_Dimensions-What_Matters-SINGLE-WEB-2021-FALCON_INT
2021-07-16 19:16:46Psychedelic536Two_Faces_And_Tazo-Lets_All_Unite-WEB-2021-FALCON_INT
2021-07-16 19:16:17Psychedelic413Sykick-The_Secret_Code-SINGLE-WEB-2021-FALCON_INT
2021-07-16 19:15:50Psychedelic417Spectra_Sonics_And_DJ_Ko-Hei-Salami_And_Banana-SINGLE-WEB-2021-FALCON_INT
2021-07-16 19:15:23Psychedelic416Second_Sun-Expansion_Of_The_Universe-SINGLE-WEB-2021-FALCON_INT
2021-07-16 19:14:56Psychedelic535Reverse-Vortex-WEB-2021-FALCON_INT
2021-07-16 19:14:28Psychedelic48Raz-Robots-SINGLE-WEB-2021-FALCON_INT
2021-07-16 19:14:01Psychedelic534Quantum-Hovek_Olam-WEB-2021-FALCON_INT
2021-07-16 19:13:32Psychedelic534Morsei-The_Ceremony-WEB-2021-FALCON_INT
2021-07-16 19:13:06Psychedelic49Metronome_And_Symphonix-Shadows_Of_You_Symphonix_Remix-SINGLE-WEB-2021-FALCON_INT
2021-07-16 19:12:38Psychedelic416Limitless-Fairytale-SINGLE-WEB-2021-FALCON_INT
2021-07-16 19:11:43Psychedelic416Invader_Space_Feat._Middle-D-Soul-SINGLE-WEB-2021-FALCON_INT
2021-07-16 19:11:14Psychedelic416Imagine_Mars_And_Faders-Chaitanya-SINGLE-WEB-2021-FALCON_INT
2021-07-16 19:10:48Psychedelic420Feel-Nostromo-SINGLE-WEB-2021-FALCON_INT
2021-07-16 19:09:52Psychedelic533El_Peggae-Monocromo-WEB-2021-FALCON_INT
2021-07-16 19:09:23Psychedelic411Durs-Real_Or_Fake-SINGLE-WEB-2021-FALCON_INT
2021-07-16 19:08:56Psychedelic414Cosmic_Flow_And_Status_Zero-Things_In_The_Sky-SINGLE-WEB-2021-FALCON_INT
2021-07-16 19:08:29Psychedelic11139Brojanowski-Cyber_Funk-WEB-2021-FALCON_INT
2021-07-16 19:07:29Psychedelic417Athzira_And_Lunarave-Inti_Raymi-SINGLE-WEB-2021-FALCON_INT
2021-07-16 19:07:04Psychedelic415Aktyum-Higher_Reality-SINGLE-WEB-2021-FALCON_INT
2021-07-16 19:06:33Psychedelic417Aatma_And_Fusionist-We_Are_More-SINGLE-WEB-2021-FALCON_INT
2021-07-16 18:08:33Psychedelic418Attik-Nordic_Caves-SINGLE-WEB-2021-FALCON_INT
2021-07-16 16:48:58Trance511Vassmo_And_That_Girl-Letting_Go_(Extended_Mix)-(FYH010)-SINGLE-WEB-2021-AOV
2021-07-16 16:40:47Trance535Naden-Draugen-(EDM036)-WEBFLAC-2021-L4L
2021-07-16 16:32:14Trance512Davey_Asprey-Rebirth_(Extended_Mix)-(ASOT661)-SINGLE-WEB-2021-AOV
2021-07-16 13:51:14TranceVA-Dreamscape-A_Trip_Into_Psychedelic_Trance-Volume_2-(ZYX82996-2)-REPACK-2CD-FLACON
2021-07-16 12:13:51Trance516Sarah_Russell_And_Raz_Nitzan_-_Borrowed_Time-(AMSTR393)-SINGLE-WEB-2021-FMC
2021-07-16 10:21:11Trance620Ronski_Speed_-_Wayflow-(SUBC244)-WEB-2021-JUSTiFY_iNT
2021-07-16 10:20:51Trance621Nitrous_Oxide_and_Matt_Bukovski_-_Solstice-(SURR012)-WEB-2021-JUSTiFY_iNT
2021-07-16 10:18:49Trance620Everlight_-_Light_The_Way__Renegade_Bass-WEB-2021-JUSTiFY_iNT
2021-07-16 10:18:22Trance621Everlight_-_Light_The_Way__Renegade_Bass-(SKLD047)-WEB-2021-JUSTiFY_iNT
2021-07-16 10:18:00Trance13106BT_and_April_Bender_-_Windows-(BH11330)-WEB-2021-JUSTiFY_iNT
2021-07-16 09:56:26Trance621Jon_Bourne_-_Langos-(RDS055)-WEB-2021-JUSTiFY_iNT
2021-07-16 09:56:02Trance625James_Kitcher_and_Adam_Taylor_-_Ethereal_Reality-(PTN070)-WEB-2021-JUSTiFY_iNT
2021-07-16 09:55:28Trance623Giuseppe_Ottaviani_and_Lucid_Blue_-_Be_The_Angel-(BH11160)-WEB-2021-JUSTiFY_iNT
2021-07-16 09:54:54Trance517Genzuru_-_Horizon-(DISCOVER292)-SINGLE-WEB-2021-JUSTiFY_iNT
2021-07-16 09:54:46Trance617Frailai__Maratone_and_Amin_Salmee_-_Nothing_Without_You_(Tensteps_Remix)-(MEMA002)-WEB-2021-JUSTiFY_iNT
2021-07-16 09:54:32Trance620Fisical_Project_-_Spectrum-(ALWAYSA387E)-WEB-2021-JUSTiFY_iNT
2021-07-16 09:53:54Trance625Carlo_Camargo_-_The_Sun_Has_Died-(SNXT006D)-WEB-2021-JUSTiFY_iNT
2021-07-16 09:53:36Trance619BRENT_RIX_-_Density-(NIX215)-WEB-2021-JUSTiFY_iNT
2021-07-16 09:53:14Trance836Adriano_Scintilla_-_The_Streets_Of_Rome-(SCS005)-WEB-2021-JUSTiFY_iNT
2021-07-16 09:01:32Trance623Peetu_S_-_The_Mission-(OUT184)-WEB-2021-JUSTiFY_iNT
2021-07-16 09:01:04Trance628Metta_and_Glyde_-_Heaven_and_Earth-(FSOE537)-WEB-2021-JUSTiFY_iNT
2021-07-16 09:00:59Trance516London_and_Niko_-_Angels_Playground_(Extended_Mix)-(SDR478)-SINGLE-WEB-2021-JUSTiFY_iNT
2021-07-16 09:00:49Trance1284UltraBooster_-_Go_Again-(MMRD1366)-WEB-2021-JUSTiFY_iNT
2021-07-16 09:00:43Trance623Patrik_Humann_and_Sarah_De_Warren_-_Love_Again_(Beatsole_Remix)-(ENPROG433RE)-WEB-2021-JUSTiFY_iNT
2021-07-16 08:57:12Trance618Omniks_and_NyTiGen_-_Calipso-(FLASHTR179)-WEB-2021-JUSTiFY_iNT
2021-07-16 07:24:59TranceMarkus_Schulz_-_Global_DJ_Broadcast__Incl_Claus_Backslash_Guestmix-SAT-07-15-2021-TALiON
2021-07-16 07:23:00TranceArmin_van_Buuren_-_A_State_of_Trance_1025-SAT-07-15-2021-TALiON
2021-07-16 06:16:32Trance23293VA_-_Beatport_Dave_Steward_July_Chart-WEB-2021
2021-07-16 06:16:11Trance14162VA_-_Beatport_Chart_By_Acid_Singularity_-_Essential_Vibes_June_Top10-WEB-2021
2021-07-16 06:15:48Trance27244VA_-_Beatport_Paddy_Kelly_KKR_Kelltic_Prog_and_House_040-WEB-2021
2021-07-16 06:15:25Trance19260VA_-_Beatport_Chart_By_Nuspirit_-_Summer_Of_Love-WEB-2021
2021-07-16 06:15:06Trance14147VA_-_Beatport_Ayham52_Emotion_In_The_Mix_158-WEB-2021
2021-07-16 06:14:45Trance14167VA_-_Beatport_Chart_By_Raulmad_-_That_Night_In_Fabric-WEB-2021
2021-07-16 06:14:27Trance17194VA_-_Beatport_Alex_Van_Sanders_Yeiskomp_Miscellany_129-WEB-2021
2021-07-16 06:14:01Trance16184VA_-_Beatport_Ryui_Bossen_Yeiskomp_Music_Episode_157-WEB-2021
2021-07-16 01:27:00Trance510Ferry_Corsten_And_Leon_Bolier_Ft._NBLM-Trust_You_(Extended_Mix)-(FLASH239)-SINGLE-WEB-2021-AOV
2021-07-15 18:20:14Psychedelic530Zone_Tempest-Phases_Of_Evolution-WEB-2021-FALCON_INT
2021-07-15 18:19:46Psychedelic46Vini_Vici_Vs._Neelix_And_Mkla-Come_Close-SINGLE-WEB-2021-FALCON_INT
2021-07-15 18:19:18Psychedelic12127VA-Psychedelic_Symmetry_Vol_3-WEB-2021-FALCON_INT
2021-07-15 18:18:51Psychedelic419UNI_Vs._Tsuyoshi_Suzuki-Just_50_Years_Ago_Spectra_Sonics_Remix-SINGLE-WEB-2021-FALCON
2021-07-15 18:18:25Psychedelic526Tetrikal-Phoenix-WEB-2021-FALCON_INT
2021-07-15 18:17:57Psychedelic414Talamasca-Marijuana_Reaction_XOXO_Remix-SINGLE-WEB-2021-FALCON_INT
2021-07-15 18:17:31Psychedelic413Tabula_Rasa-Concept_Of_Ganesh-SINGLE-WEB-2021-FALCON_INT
2021-07-15 18:17:04Psychedelic413Surge_And_Estefano_Haze-Outer_Perceptions-SINGLE-WEB-2021-FALCON_INT
2021-07-15 18:16:36Psychedelic411Sonic_Entity-Fear_No_Man-SINGLE-WEB-2021-FALCON_INT
2021-07-15 18:16:09Psychedelic537Sci-Flyers_And_Psychicnova-Travelogue_To_Outer_Space-WEB-2021-FALCON
2021-07-15 18:15:41Psychedelic414SUN-Alpha_Phase-SINGLE-WEB-2021-FALCON_INT
2021-07-15 18:15:14Psychedelic419Rising_Dust_Vs._Skizologic-Sadhu-SINGLE-WEB-2021-FALCON
2021-07-15 18:14:48Psychedelic415Reborn-Transcend_Realities-SINGLE-WEB-2021-FALCON_INT
2021-07-15 18:14:20Psychedelic417Psilocybe_Project-Chase_The_Sun-SINGLE-WEB-2021-FALCON
2021-07-15 18:13:53Psychedelic413Out_Of_Range_And_Anomalia-Part_Of_Trip-SINGLE-WEB-2021-FALCON_INT
2021-07-15 18:13:26Psychedelic415Nukleall_Vs._Haffman-Code_One-SINGLE-WEB-2021-FALCON_INT
2021-07-15 18:12:59Psychedelic643Nerazim-Macromicrosis-WEB-2021-FALCON_INT
2021-07-15 18:12:32Psychedelic11119Namarrkon-Oceanum-WEB-2021-FALCON_INT
2021-07-15 18:12:05Psychedelic415Mono_Sapiens-Universe_Is_Crazy-SINGLE-WEB-2021-FALCON_INT
2021-07-15 18:11:38Psychedelic12169Mad_Tribe-Spaced_Out-Remastered-WEB-2021-FALCON
2021-07-15 18:11:10Psychedelic529MVMB_Vs._DM-Theory-Timelapse-WEB-2021-FALCON_INT
2021-07-15 18:10:44Psychedelic414Killer_Buds-Magnetic-SINGLE-WEB-2021-FALCON_INT
2021-07-15 18:10:15Psychedelic416Justin_Chaos_And_Tron-The_Merry_Pranksters-SINGLE-WEB-2021-FALCON_INT
2021-07-15 18:09:48Psychedelic420Ikon-Moonbow-SINGLE-WEB-2021-FALCON
2021-07-15 18:09:22Psychedelic410Fabio_Fusco_Vs._Joicey-Thoughts-SINGLE-WEB-2021-FALCON_INT
2021-07-15 18:08:54Psychedelic49Elijix_And_Codeless-Between_The_Stars-SINGLE-WEB-2021-FALCON_INT
2021-07-15 18:08:28Psychedelic416Diksha-Afrodelia-SINGLE-WEB-2021-FALCON_INT
2021-07-15 18:07:59Psychedelic413DX-Illusions_Of_Reality-SINGLE-WEB-2021-FALCON_INT
2021-07-15 18:07:32Psychedelic414Cyrus_The_Virus_And_Space_Invaders-Welcome_To_Earth-SINGLE-WEB-2021-FALCON_INT
2021-07-15 18:07:06Psychedelic414Cymatic-Evolving_Minds-SINGLE-WEB-2021-FALCON_INT
2021-07-15 18:06:38Psychedelic534Brainlapse_And_Ital-Tribal_Journey-WEB-2021-FALCON_INT
2021-07-15 18:06:11Psychedelic414Beurat-First_Contact-SINGLE-WEB-2021-FALCON_INT
2021-07-15 18:05:45Psychedelic414Auditiva-Miss_Melodies-SINGLE-WEB-2021-FALCON_INT
2021-07-15 18:05:16Psychedelic415Ancestral_Code-Fractal_Dimension-SINGLE-WEB-2021-FALCON_INT
2021-07-15 18:04:50Psychedelic12128Amplify-Regeneration_Rmxs-WEB-2021-FALCON_INT
2021-07-15 18:04:23Psychedelic530Akhenatonn-Innervision-WEB-2021-FALCON_INT
2021-07-15 16:01:19Trance740Zarotta_and_Ithur_-_Warrior-(TF067)-WEB-2021-JUSTiFY_iNT
2021-07-15 15:36:43Trance627Ultimate_-_Rosa-(INFRAPU087)-WEB-2021-JUSTiFY_iNT
2021-07-15 15:36:24Trance625Phil_Reynolds_-_Come_Together-(IDR078)-WEB-2021-JUSTiFY_iNT
2021-07-15 15:36:02Trance622Mike_van_Fabio_-_Coherence-(NIX213)-WEB-2021-JUSTiFY_iNT
2021-07-15 15:35:42Trance624Ivan_GM_-_Zurriola-(RDXM162)-WEB-2021-JUSTiFY_iNT
2021-07-15 15:35:22Trance623Chris_Raynor_-_Alphard-(WATR099)-WEB-2021-JUSTiFY_iNT
2021-07-15 15:35:02Trance844Carl_Daylim_-_Ablazing_Remixed_Vol._1-(ABL050)-WEB-2021-JUSTiFY_iNT
2021-07-15 15:34:36Trance628Aleksey_Litunov_and_Azovsky_-_Occasion-(TF143)-WEB-2021-JUSTiFY_iNT
2021-07-15 15:34:15Trance621Abmct_-_Enter__Stone_Groove-(ESR536)-WEB-2021-JUSTiFY_iNT
2021-07-15 15:33:52Trance621Woody_van_Eyden_and_Rene_Ablaze_-_Pure_Magic_(Sound_Of_Coffee)-(ABL051)-WEB-2021-JUSTiFY_iNT
2021-07-15 15:15:15Trance516Tranzvission_-_Rain_Of_Stars-(SDR475)-SINGLE-WEB-2021-JUSTiFY_iNT
2021-07-15 15:14:55Trance626Spaceline_and_U_Mount_-_Adrenaline-(RDX138204)-WEB-2021-JUSTiFY_iNT
2021-07-15 15:14:36Trance631Shamanz_and_Inv4der_-_The_Chosen-(HRR073)-WEB-2021-JUSTiFY_iNT
2021-07-15 15:14:13Trance842Rafael_Osmo_-_Reaction_Time_EP-(VAN2439)-WEB-2021-JUSTiFY_iNT
2021-07-15 15:13:51Trance624Katrik_-_Song_From_A_Secret_Garden-(ABSK089)-WEB-2021-JUSTiFY_iNT
2021-07-15 15:13:31Trance630Glynn_Alan_-_DMR-(EGMSIN323)-WEB-2021-JUSTiFY_iNT
2021-07-15 15:13:10Trance514ENTrance_-_Butterfly_Flight-(SDR474)-SINGLE-WEB-2021-JUSTiFY_iNT
2021-07-15 15:12:53Trance624Air_Project_and_Victor_Special_-_Colour_Of_Perfection-(RDX447)-WEB-2021-JUSTiFY_iNT
2021-07-15 14:01:08Trance622Wynwood_and_Whoman_-_Soronus-(BT314)-WEB-2021-JUSTiFY_iNT
2021-07-15 14:00:45Trance842Tony_Gribsun_-_The_Ragweed__Keep_On_Moving-(RDXRED188)-WEB-2021-JUSTiFY_iNT
2021-07-15 14:00:08Trance622Ramin_Arab_-_Blackout-(INFRAR042)-WEB-2021-JUSTiFY_iNT
2021-07-15 13:59:45Trance972Nytigen_and_Trance_Reserve_-_Andromeda_(Remixes)-(NS1016)-WEB-2021-JUSTiFY_iNT
2021-07-15 13:59:20Trance514Michael_L._-_Moonscape-(ASR038)-SINGLE-WEB-2021-JUSTiFY_iNT
2021-07-15 13:58:41Trance12109Madstation_-_Artist_Focus_86-(AEDAF86)-WEB-2021-JUSTiFY_iNT
2021-07-15 13:57:50Trance853Crispy_and_Mc.Crus_-_Sorry_That_You_Feel_That_Way_EP-(BR250)-WEB-2021-JUSTiFY_iNT
2021-07-15 13:57:35Trance976Amber_Maxwell_-_Boy_(Magicmike_and_Sajjad_Gholipour_Remixes)-(SACR084)-WEB-2021-JUSTiFY_iNT
2021-07-15 13:57:26Trance622Cj_Arthur_-_Thriving_Thoughts-(AS1380156)-WEB-2021-JUSTiFY_iNT
2021-07-15 11:30:56Trance847DJ_Spacig_-_Supernova-(LSR068)-WEB-2021-JUSTiFY_iNT
2021-07-15 11:30:32Trance626Coke_Montilla_-_Evasion-(LSR063)-WEB-2021-JUSTiFY_iNT
2021-07-15 11:23:26Trance618Ryad_-_Insignia-(LSR069)-WEB-2021-JUSTiFY_iNT
2021-07-15 09:12:56Trance512Evgeny_Kruglov_-_Story-(YR1499)-SINGLE-WEB-2021-ZzZz
2021-07-15 09:00:52Trance515OSX_-_Remember_The_Days-(SSCD2305)-SINGLE-WEB-2021-ZzZz
2021-07-15 08:35:10Trance515Nostrangel_-_Following_Nightlife_(Original_Mix)-(NOSTRA078)-SINGLE-WEB-2021-ZzZz
2021-07-15 06:17:19Trance34464VA_-_Beatport_Trance_Favorites_June_By_Johan_Gielen-WEB-2021
2021-07-15 06:16:56Trance17186VA_-_Beatport_Ayham52_Emotion_In_The_Mix_159-WEB-2021
2021-07-15 06:16:16Trance19156VA_-_Beatport_Chart_By_Nathassia_-_Goddess_Is_A_Dj_021-WEB-2021
2021-07-15 06:15:58Trance15176VA_-_Beatport_Chart_By_Alex_Van_Sanders_-_Yeiskomp_Miscellany_131-WEB-2021
2021-07-15 06:15:33Trance23318VA_-_Beatport_Chart_By_Rj_Hernandez_-_Frozen_Sun-WEB-2021
2021-07-15 06:15:09Trance14165VA_-_Beatport_Pure_Trance_Sessions_503-WEB-2021
2021-07-14 21:25:49Trance623Mahaputra_-_The_Summer_Waves_(Extended_and_Original)-(AOLE011)-WEB-2021-ZzZz
2021-07-14 21:20:51Trance842Trey_Vinter_-_Sophia-(YM028)-WEB-2021-ZzZz
2021-07-14 21:16:52Trance514Daniel_Verdun_-_Miami_At_Night-(TRS001)-SINGLE-WEB-2021-ZzZz
2021-07-14 21:03:42Trance514Astronomica_-_Forever_and_Ever_(Progressive_Vocal_Mix)-(CR011)-SINGLE-WEB-2021-ZzZz
2021-07-14 19:50:16Trance515RUNOS_-_Falling_Petals-(SR031)-SINGLE-WEB-2021-ZzZz
2021-07-14 19:45:51Trance518Daryl_G_-_Secret-(YR1494)-SINGLE-WEB-2021-ZzZz
2021-07-14 19:00:56Trance517Lost_Knowledge_and_Nurogl_-_Elevate-(LKR009)-SINGLE-WEB-2021-ZzZz
2021-07-14 18:55:56Trance518Grynder_and_Sequence_-_Brotherhood-(SNK028)-SINGLE-WEB-2021-ZzZz
2021-07-14 14:44:42Psychedelic761Yabba_Dabba-Weird_By_Nature-WEB-2021-FALCON_INT
2021-07-14 14:44:15Psychedelic411Twentin_Quarantino-Sky_Lights-SINGLE-WEB-2021-FALCON_INT
2021-07-14 14:43:47Psychedelic530Triton-The_Opposite-WEB-2021-FALCON_INT
2021-07-14 14:43:20Psychedelic417Tongue_And_Groove-Funk_Slutz_UNI__Tsuyoshi_Suzuki_Remix-SINGLE-WEB-2021-FALCON_INT
2021-07-14 14:42:53Psychedelic414Sub6-Waste-SINGLE-WEB-2021-FALCON_INT
2021-07-14 14:42:26Psychedelic413Second_Side-Independent_Entity-SINGLE-WEB-2021-FALCON_INT
2021-07-14 14:42:00Psychedelic417Releasse-Spiritual_Journeys-SINGLE-WEB-2021-FALCON
2021-07-14 14:41:32Psychedelic886Nostromosis-Conquerors_Of_Space-WEB-2021-FALCON_INT
2021-07-14 14:41:05Psychedelic648Nazari_And_Blot-Believe_It-WEB-2021-FALCON
2021-07-14 14:40:37Psychedelic419Kobi-Distrust-SINGLE-WEB-2021-FALCON
2021-07-14 14:40:10Psychedelic539Klopfgeister-Instant_Summer_Suduaya_Remix-WEB-2021-FALCON
2021-07-14 14:39:43Psychedelic414K1Q_Vs._Inverted_World-Addiction-WEB-2021-FALCON_INT
2021-07-14 14:39:16Psychedelic49Jacob_Vs._Thorment_And_Synna-Foresight-SINGLE-WEB-2021-FALCON_INT
2021-07-14 14:38:49Psychedelic416Invisible_Reality_And_Side_Effects-Dream_And_Reality-SINGLE-WEB-2021-FALCON
2021-07-14 14:38:22Psychedelic414Interium-Cycles-SINGLE-WEB-2021-FALCON_INT
2021-07-14 14:37:54Psychedelic49Interactive_Noise-Do_It_Yourself-SINGLE-WEB-2021-FALCON_INT
2021-07-14 14:37:28Psychedelic763Insignia-Intelligent_Lifeforms-WEB-2021-FALCON_INT
2021-07-14 14:37:01Psychedelic415Inner_Sphere-Enigmatic-SINGLE-WEB-2021-FALCON
2021-07-14 14:36:31Psychedelic536Inner_Lux-Tameana-WEB-2021-FALCON
2021-07-14 14:36:05Psychedelic413Guerra_And_Animalia-Orbital-SINGLE-WEB-2021-FALCON_INT
2021-07-14 14:35:38Psychedelic533GMS_And_Jimbo-Dune-WEB-2021-FALCON_INT
2021-07-14 14:35:11Psychedelic419Fiction-Glitch_Protocol-SINGLE-WEB-2021-FALCON
2021-07-14 14:34:45Psychedelic410Enarxis-Save_Me-SINGLE-WEB-2021-FALCON
2021-07-14 14:34:16Psychedelic411Egorythmia-Lotus-SINGLE-WEB-2021-FALCON_INT
2021-07-14 14:33:49Psychedelic633Audiomode-In_Your_Eyes-WEB-2021-FALCON_INT
2021-07-14 14:33:23Psychedelic414Aligroove-Spiritual_Connection-SINGLE-WEB-2021-FALCON_INT
2021-07-14 13:12:02TranceCerf,_Mitiska_and_Jaren-Light_The_Skies-(ARMA115)-WEBFLAC-2007-L4L
2021-07-14 13:03:02Goa31455Total_Eclipse_-_Bordeaux_Live_1997-3CD-2021-gEm
2021-07-14 09:59:20TranceVA-The_Best_Intro_Mixes_For_DJ's_Vol._5-(ARVA539)-WEBFLAC-2013-L4L
2021-07-14 09:58:40TranceVA-The_Best_Intro_Mixes_For_DJ's_Vol._4-(ARVA360)-WEBFLAC-2013-L4L
2021-07-14 09:57:58TranceVA-The_Best_Intro_Mixes_For_DJ's_Vol._3-(ARDI2942)-WEBFLAC-2012-L4L
2021-07-14 09:57:04TranceVA-The_Best_Intro_Mixes_For_DJ's_Vol._2-(ARDI1158)-WEBFLAC-2009-L4L
2021-07-14 09:55:56TranceVA-The_Best_Intro_Mixes_For_DJ's_Vol._1-(none)-WEBFLAC-2008-L4L
2021-07-14 09:47:47Trance58DJ-Elven_feat_Emmy_-_My_Life_For_The_Sound_(DJ_Luciano_Radio_Remix)-(LDR2269)-SINGLE-WEB-2021-ZzZz
2021-07-14 06:33:07Trance24250VA_-_Beatport_Matt_Bishop_June_2021_Chart-WEB-2021
2021-07-14 06:32:48Trance14151VA_-_Beatport_Master_Beat_Projekt_Trance_Charts_June21-WEB-2021
2021-07-14 06:32:30Trance14163VA_-_Beatport_Pure_Trance_Sessions_505-WEB-2021
2021-07-14 06:32:12Trance14137VA_-_Beatport_Fawzy_Harmony_Top_10_Chart-WEB-2021
2021-07-14 06:31:56Trance13146VA_-_Beatport_Pure_Trance_Sessions_504-WEB-2021
2021-07-14 06:31:34Trance16196VA_-_Beatport_Projekt_Beats_Episode_048-WEB-2021
2021-07-14 06:31:03Trance13154VA_-_Beatport_Chart_By_Dustin_Husain_-_Night_City_Top_Picks-WEB-2021
2021-07-14 06:30:40Trance14163VA_-_Beatport_Manuel_Le_Saux_Skyward_Chart-WEB-2021
2021-07-14 01:27:30TranceVA-Private_Party_3__Mixed_By_Cor_Fijneman-(Black_Hole_CD_58)-CD-FLAC-2010-WRE
2021-07-13 17:17:13Trance621Yisus_Madrid_-_Comet-(TF42)-WEB-2021-JUSTiFY_iNT
2021-07-13 17:15:36Trance621Vision_X_-_Ping_Pong-(NKF056)-WEB-2021-JUSTiFY_iNT
2021-07-13 17:15:16Trance618Vadim_Bonkrashkov_-_Una_Corda-(TRUE172)-WEB-2021-JUSTiFY_iNT
2021-07-13 17:14:57Trance513Tomah_-_FarFarOut-(DMAX699)-SINGLE-WEB-2021-JUSTiFY_iNT
2021-07-13 17:14:41Trance625The_Midnight_Snack_-_Personal_Reflection-(BT309)-WEB-2021-JUSTiFY_iNT
2021-07-13 17:14:18Trance511Sound_Of_Salman_-_Rockets_Of_Love_(Original_Mix)-(YR1508)-SINGLE-WEB-2021-JUSTiFY_iNT
2021-07-13 17:14:00Trance624Sean_Truby_-_More_To_Tell-(NK099)-WEB-2021-JUSTiFY_iNT
2021-07-13 17:13:33Trance959Pure_Wisdom_-_Rise_and_Shine_(Incl._Marc_Jerome_Remix)-(WAT036)-WEB-2021-JUSTiFY_iNT
2021-07-13 17:12:45Trance622Mario_Piu_vs_Sygma_-_Dedicated_(Incl._Edit_Mix)-(NKR024)-WEB-2021-JUSTiFY_iNT
2021-07-13 17:12:24Trance736Leon_Shady_-_Fortress_Of_Solitude-(10200133)-WEB-2021-JUSTiFY_iNT
2021-07-13 17:11:59Trance515Johnny_E_and_Craig_Mortimer_-_Soaring_Higher_(Original_Mix)-(AS1380157)-SINGLE-WEB-2021-JUSTiFY_iNT
2021-07-13 17:11:41Trance622JAMES_DUST_and_ALTERNATE_HIGH_-_Dreamland-(WAT037)-WEB-2021-JUSTiFY_iNT
2021-07-13 17:11:22Trance623Haikal_Ahmad_-_Skies_Falling_Down_(Incl._Radio_Edit)-(VOICE111)-WEB-2021-JUSTiFY_iNT
2021-07-13 17:11:00Trance517Forbidden_Mind_-_Pictures-(BT313)-SINGLE-WEB-2021-JUSTiFY_iNT
2021-07-13 17:10:41Trance517Daryl_G_-_Confusion-(DMAX698)-SINGLE-WEB-2021-JUSTiFY_iNT
2021-07-13 17:10:21Trance517Coke_Montilla_-_Mystery_Land-(10200285)-SINGLE-WEB-2021-JUSTiFY_iNT
2021-07-13 17:10:02Trance631Asteroid_-_Home-(ADR077)-WEB-2021-JUSTiFY_iNT
2021-07-13 17:09:43Trance620Arctic_Ocean_-_Always_Beside_You-(NIX214)-WEB-2021-JUSTiFY_iNT
2021-07-13 16:13:37Trance633Naki_(JPN)_-_Evening_Star_(Incl._Noshi_Remix)-(RRRNEW093)-WEB-2021-JUSTiFY_iNT
2021-07-13 13:00:25Trance514XjO_-_Arrakis_(Original_Mix)-(PVM257D)-SINGLE-WEB-2021-JUSTiFY_iNT
2021-07-13 13:00:17Trance513PITTARIUS_CODE_and_Joyline_Snow_-_Watch_You_Go-(ENTRM214)-SINGLE-WEB-2021-JUSTiFY_iNT
2021-07-13 13:00:09Trance840Johnny_E_and_Craig_Mortimer_-_Crashing_Over-(AE447)-WEB-2021-JUSTiFY_iNT
2021-07-13 12:59:13Trance59J.P._Casey_-_Sarsaparilla_(Original_Mix)-(PVM249D)-SINGLE-WEB-2021-JUSTiFY_iNT
2021-07-13 12:58:57Trance835Criostasis_-_Why_Did_I-(FDR008)-WEB-2021-JUSTiFY_iNT
2021-07-13 12:58:34Trance513Andy_Jornee_-_Learning_To_Fly-(U71121)-SINGLE-WEB-2021-JUSTiFY_iNT
2021-07-13 12:58:14Trance625Andy_Jornee_-_Gone_Away-(U70821)-WEB-2021-JUSTiFY_iNT
2021-07-13 12:57:54Trance616Alexander_Komarov_-_Wood_Fairy-(BASE124)-WEB-2021-JUSTiFY_iNT
2021-07-13 11:50:38Trance511Jackob_Roenald_-_Sledghammer-(RRD32)-SINGLE-WEB-2021-ZzZz
2021-07-13 06:18:33Trance13161VA_-_Beatport_Chart_By_Alex_Di_Stefano_-_7_Cities_Top_10_July-WEB-2021
2021-07-13 06:17:19Trance25344VA_-_Beatport_June_Chart_By_Dj_Jordyboy-WEB-2021
2021-07-13 06:16:44Trance14153VA_-_Beatport_Fischer_and_Miethig_June_Charts-WEB-2021
2021-07-13 06:16:19Trance24304VA_-_Beatport_Danny_Grunow_Electronic_Impressions_711-WEB-2021
2021-07-13 06:15:38Trance13135VA_-_Beatport_Drym_Learn_To_Fall_Chart-WEB-2021
2021-07-13 06:15:05Trance14161VA_-_Beatport_Alex_Wright_Apophenia_Chart-WEB-2021
2021-07-13 06:14:48Trance13151VA_-_Beatport_Allen_Watts_Twister-Cyclone_Chart-WEB-2021
2021-07-13 06:14:26Trance14149VA_-_Beatport_Udm_Perfect_Feelings_Chart-WEB-2021
2021-07-12 20:57:17TranceCosmic_Gate_-_Wake_Your_Mind_Radio_379-SAT-07-11-2021-TALiON
2021-07-12 11:55:56TranceWapp_-_Is_This-WEB-2000-iDC
2021-07-12 06:19:27Trance14170VA_-_Beatport_Chart_By_Ruslan_Device_-_Best_Of_Uplifting_Trance_June-WEB-2021
2021-07-12 06:18:09Trance36486VA_-_Beatport_Artur_Lyashenko_Dp_Trance_Family_(June_Chart_2021)-WEB-2021
2021-07-12 06:17:46Trance16185VA_-_Beatport_Paddy_Kelly_KKR_Spotlight_Sessions_-_Rezwan_Khan_June-WEB-2021
2021-07-12 06:17:24Trance14150VA_-_Beatport_Empirian_Last_Stand_Top_10_Chart-WEB-2021
2021-07-12 06:16:39Trance18249VA_-_Beatport_Chart_By_Richard_Lowe_-_Daylight-WEB-2021
2021-07-12 06:15:41Trance24332VA_-_Beatport_D.J._Macintyre_Summer_Is_Here_Chart-WEB-2021
2021-07-12 06:14:59Trance13160VA_-_Beatport_Exolight_Sunset_Drive_Chart-WEB-2021
2021-07-11 23:25:46Trance416Limitless-Fairytale-(EUIL184)-SINGLE-WEB-2021-wAx
2021-07-11 23:04:27TranceYoji_Biomehanika-A_Theme_Form_Banginglobe-(SHAH2011)-VINYL-FLAC-2003-STAX
2021-07-11 21:42:35TranceCharlie_(B)_Rown-Slam_N_Jam-(OVR112)-VINYL-FLAC-2002-STAX
2021-07-11 21:04:00TranceRay_Knox-Fiesta-(DROP05726)-VINYL-FLAC-2005-STAX
2021-07-11 20:59:01TranceDJ_Sakin_And_Friends-Little_Paradise-(DOSE087)-VINYL-FLAC-2001-STAX
2021-07-11 20:31:55Psychedelic14185Spindrift--Planetary_Relations-(RES009)-WEB-2021-OMA
2021-07-11 20:31:19Trance1076VA-Ibiza_Underground_Dark-(AA130)-WEB-2021-wAx
2021-07-11 14:30:28Trance414Koyah_and_Leonard_A-Paraiso_(Extended_Mix)-(ESR533)-SINGLE-WEB-2021-wAx
2021-07-11 14:28:48Trance417Haikal_Ahmad-Skies_Falling_Down_(Extended_Mix)-(VOICE111)-SINGLE-WEB-2021-wAx
2021-07-11 14:26:06Trance624Ciaran_McAuley_-_Tears_Dont_Mean_Youre_Losing-(FSOE535)-WEB-2021-L4M_INT
2021-07-11 14:25:56Trance637Basil_OGlue_and_Nomas_-_Untold-(PURETRANCE215)-WEB-2021-L4M_INT
2021-07-11 13:58:09Trance412Steve_Dekay_and_FG_Noise-Hydra_(Extended_Mix)-(RGEN087)-SINGLE-WEB-2021-wAx
2021-07-11 13:54:55Trance412Michael_Angelo-Flying_(Extended_Mix)-(DIGISOC414E)-SINGLE-WEB-2021-wAx
2021-07-11 13:37:06TrancePaul_van_Dyk_-_VONYC_Sessions_766-SAT-07-11-2021-TALiON
2021-07-11 13:05:56Trance523Danny_Legatto-Fallen_Earth-(RDXM160)-WEB-2021-wAx
2021-07-11 06:18:25Trance13182VA_-_Beatport_Cameron_Mo_June_Summer_2021_Chart-WEB-2021
2021-07-11 06:17:18Trance14148VA_-_Beatport_Exouler_Far_Away_Chart-WEB-2021
2021-07-11 06:16:48Trance14139VA_-_Beatport_Christopher_Corrigan_Chart-WEB-2021
2021-07-11 06:16:15Trance24313VA_-_Beatport_Harshil_Kamdar_Pacifier_Chart-WEB-2021
2021-07-11 06:15:38Trance13163VA_-_Beatport_Chart_By_Jorn_Van_Deynhoven_-_Summer_Anthems-WEB-2021
2021-07-11 06:15:20Trance17158VA_-_Beatport_Voolgarhythm_45-WEB-2021
2021-07-11 06:14:59Trance16191VA_-_Beatport_Projekt_Beats_Episode_045-WEB-2021
2021-07-10 21:41:55Trance521Dory_Badawi-On_The_Way_To_Heaven-(RDXD012)-WEB-2021-wAx
2021-07-10 21:02:31Trance862Dmitriy_Kuznetsov-Emerald_Dream-(ABSK088)-WEB-2021-wAx
2021-07-10 20:46:54Trance413Hidden_Effect-Kernel_Panic-(ENTRMR125)-SINGLE-WEB-2021-wAx
2021-07-10 19:54:33Trance412DJ_Melodie_and_Yelow-Crystal_Clear_(Extended_Mix)-(ITAX014)-SINGLE-WEB-2021-wAx
2021-07-10 15:37:08Trance520David_McQuiston-Afterparty-(BSR012)-WEB-2021-wAx
2021-07-10 15:31:49Trance12106Craig_Connelly_ft_Megan_McDuffee-Keep_Me_Believing_(The_Remixes)-(HFR013R)-WEB-2021-wAx
2021-07-10 15:29:01Psychedelic868Muirakitan--The_Hunt-(GGR015)-WEB-2021-OMA
2021-07-10 15:17:35Trance415Shedona-Polkatorju_(Extended_Mix)-(SCR422)-SINGLE-WEB-2021-wAx
2021-07-10 15:00:25Trance752Dmpv_and_Anveld-Stratospere_Mountain_Climbing-(RDXM161)-WEB-2021-wAx
2021-07-10 14:47:27Trance526Diarent-Fly_Away-(NHW084)-WEB-2021-wAx
2021-07-10 14:35:03Trance420GILS-Free_(Extended_Mix)-(SDR473)-SINGLE-WEB-2021-wAx
2021-07-10 14:32:08Trance413Ramin_Arab-Crystal_(Extended_Mix)-(RGEN086)-SINGLE-WEB-2021-wAx
2021-07-10 13:53:15Trance416Dustin_Husain-Timegazer_(Extended_Mix)-(FLASHTR178)-SINGLE-WEB-2021-wAx
2021-07-10 13:06:28Trance416Peter_Miethig-Daydream_(Extended_Mix)-(FO140R081)-SINGLE-WEB-2021-wAx
2021-07-10 06:20:08Trance13147VA_-_Beatport_Alescrazycraft_Crazy_June_Chart-WEB-2021
2021-07-10 06:19:07Trance14148VA_-_Beatport_Daniel_Wanrooy_June_Top_10_Chart-WEB-2021
2021-07-10 06:18:34Trance15149VA_-_Beatport_Ryui_Bossen_Taotw_Episode_097-WEB-2021
2021-07-10 06:17:58Trance15167VA_-_Beatport_Ryui_Bossen_Yeiskomp_Music_Episode_159-WEB-2021
2021-07-10 06:17:31Trance14163VA_-_Beatport_Semper_T._Watson_Pres._Semper_T._Stand_Or_Fall_Chart-WEB-2021
2021-07-10 06:17:13Trance14142VA_-_Beatport_Lkx_Aka_Dj_Chewie_Lkx_-_Kirin_Ichiban_Chart-WEB-2021
2021-07-10 06:16:40Trance13143VA_-_Beatport_Chart_By_Roman_Messer_-_The_River-WEB-2021
2021-07-10 06:15:39Trance18210VA_-_Beatport_Chart_By_Ryui_Bossen_-_Andrew_Heaven_Save_The_World_For_Children-WEB-2021
2021-07-09 21:42:15Trance416Mully_and_Shvman_with_Rily_Shay-Stranded_(Andy_Moor_Remix)-SINGLE-WEB-2021-wAx
2021-07-09 21:35:15Trance415Alan_Sharkey-Quest_(Extended_Mix)-(HTE131)-SINGLE-WEB-2021-wAx
2021-07-09 21:29:25Trance519Alex_Tasty-Time_To_Love_Again-(WATR098)-WEB-2021-wAx
2021-07-09 21:25:59Trance527Leroy_Moreno-Zanzibar-(AET12)-WEB-2021-wAx
2021-07-09 21:00:44TranceAbove_and_Beyond_-_Group_Therapy_440__Incl_Protoculture_Guestmix-SAT-07-09-2021-TALiON
2021-07-09 19:59:35Trance622Gareth_Emery-Calling_Home-(WBOK010B)-WEB-2021-AOV
2021-07-09 16:22:52Psychedelic19314Beat_Bizarrre_-_Lewd_(Remastered_2021)-REMASTERED-WEB-2021-gEm